Location: Qu�bec
(46.8000°N, 71.2500°W)
Time: 11:53:03
(UTC-04:00)

OTV 5 (USA 277) - Visible Passes

Search period start: 21 October 2017 00:00
Search period end: 31 October 2017 00:00
Orbit: 404 x 417 km, 43.0° (Epoch: 07 September)

Date Brightness Start Highest point End Pass type
(mag) Time Alt. Az. Time Alt. Az. Time Alt. Az.
21 Oct ? 18:30:28 10° WSW 18:33:23 27° SSW 18:36:18 10° SE visible
22 Oct ? 19:17:40 10° SW 19:19:08 12° SSW 19:20:36 10° S visible
23 Oct ? 18:26:00 10° WSW 18:28:15 17° SSW 18:30:30 10° SSE visible
